"startDT [UTC]","vpos","CH4 [ppm]","stdev(CH4) [ppm]","CO2 [ppm]","stdev(CO2) [ppm]","H2O_reported [%]","stdev(H2O_reported)","CavityPressure [torr]","CavityTemp [C]","OutletValve","CH4_dry [ppm]","CO2_dry [ppm]","DasTemp [C]","EtalonTemp [C]","WarmBoxTemp [C]","MPVPosition","T_ECpre [C]","T_EC1 [C]","T_EC2 [C]","p_inlet [hPa]","p_in [hPa]","p_out [hPa]","T_inlet [C]","RH_inlet [%]","dwpt_inlet [C]","T_vent [C]","RH_vent [%]","dwpt_vent [C]","flow_vent [l min-1]","flow_inlet [l min-1]","dwpt_sample [C]","T_room [C]"
2013-09-25 00:00:00,3.0,1.87382,0.00583,397.553,4.240,0.1289,0.1866,139.992,45.000,30937.75831,1.87864,397.845,37.000,45.054,45.000,0.00,0.13,-272.54,-272.62,-28,421,-11,28.1,13.7,-2.2,28.1,14.1,-1.9,5.73,2.47,6.4,30.5
2013-09-25 00:01:00,3.0,1.87580,0.00036,397.320,0.095,0.0269,0.0009,140.000,45.000,30882.82723,1.87617,397.474,37.004,45.054,45.000,0.00,0.13,-272.54,-272.62,-28,420,-11,28.1,13.7,-2.3,28.1,14.0,-1.9,5.73,2.49,6.4,30.6
2013-09-25 00:02:00,3.0,1.87608,0.00030,397.245,0.037,0.0255,0.0020,140.001,45.000,30860.89734,1.87653,397.364,37.001,45.054,45.000,0.00,0.13,-272.54,-272.61,-28,420,-11,28.1,13.6,-2.3,28.1,14.0,-1.9,5.73,2.46,6.4,30.4
2013-09-25 00:03:00,3.0,1.87639,0.00018,397.367,0.035,0.0211,0.0013,140.001,45.000,30842.68161,1.87681,397.464,37.000,45.054,45.000,0.00,0.13,-272.54,-272.61,-28,420,-11,28.1,13.6,-2.3,28.1,14.0,-2.0,5.73,2.44,6.4,30.4
2013-09-25 00:04:00,3.0,1.87619,0.00022,397.485,0.025,0.0160,0.0022,140.002,45.000,30831.34409,1.87650,397.559,37.001,45.054,45.000,0.00,0.13,-272.54,-272.61,-28,420,-11,28.1,13.6,-2.3,28.1,14.0,-2.0,5.73,2.45,6.4,30.5
2013-09-25 00:05:00,3.0,1.87629,0.00035,397.540,0.045,0.0129,0.0020,140.003,45.000,30821.82396,1.87646,397.596,37.000,45.054,45.000,0.00,0.13,-272.54,-272.61,-28,420,-11,28.1,13.6,-2.3,28.1,13.9,-2.0,5.73,2.48,6.4,30.5
2013-09-25 00:06:00,3.0,1.87637,0.00036,397.609,0.023,0.0099,0.0012,140.000,45.000,30811.70719,1.87653,397.657,37.000,45.054,45.000,0.00,0.13,-272.54,-272.61,-28,421,-11,28.1,13.5,-2.4,28.1,13.9,-2.0,5.73,2.51,6.4,30.5
2013-09-25 00:07:00,3.0,1.87686,0.00040,397.695,0.026,0.0089,0.0019,140.002,45.000,30802.14757,1.87704,397.730,37.000,45.054,45.000,0.00,0.13,-272.54,-272.61,-28,421,-11,28.1,13.5,-2.4,28.1,13.9,-2.1,5.73,2.50,6.4,30.5
2013-09-25 00:08:00,3.0,1.87651,0.00028,397.679,0.030,0.0083,0.0015,140.001,45.000,30796.91114,1.87668,397.724,37.000,45.054,45.000,0.00,0.13,-272.54,-272.61,-28,421,-11,28.1,13.5,-2.4,28.1,13.9,-2.0,5.73,2.46,6.4,30.5
2013-09-25 00:09:00,3.0,1.87663,0.00024,397.672,0.027,0.0055,0.0015,139.998,45.000,30790.61115,1.87675,397.697,37.003,45.054,45.000,0.00,0.13,-272.54,-272.61,-28,421,-11,28.1,13.5,-2.4,28.1,13.9,-2.0,5.73,2.44,6.4,30.4
2013-09-25 00:10:00,3.0,1.87670,0.00043,397.667,0.050,0.0055,0.0020,140.008,45.000,30789.96583,1.87673,397.695,37.000,45.054,45.000,0.00,0.13,-272.54,-272.62,-28,421,-11,28.1,13.4,-2.4,28.1,13.8,-2.1,5.73,2.45,6.4,30.4
2013-09-25 00:11:00,3.0,1.87659,0.00032,397.680,0.027,0.0036,0.0011,139.997,45.000,30784.25004,1.87673,397.698,37.002,45.054,45.000,0.00,0.13,-272.54,-272.61,-28,421,-11,28.1,13.4,-2.4,28.1,13.8,-2.1,5.73,2.49,6.4,30.5
2013-09-25 00:12:00,3.0,1.87652,0.00034,397.681,0.032,0.0044,0.0018,140.005,45.000,30784.52864,1.87665,397.701,37.001,45.054,45.000,0.00,0.13,-272.54,-272.61,-28,422,-11,28.1,13.5,-2.4,28.1,13.8,-2.1,5.73,2.51,6.4,30.5
2013-09-25 00:13:00,3.0,1.87661,0.00041,397.683,0.019,0.0032,0.0022,140.003,45.000,30781.63194,1.87652,397.698,37.001,45.054,45.000,0.00,0.13,-272.54,-272.61,-28,422,-11,28.1,13.4,-2.5,28.1,13.8,-2.1,5.73,2.50,6.4,30.5
2013-09-25 00:14:00,3.0,1.87677,0.00058,397.691,0.033,0.0023,0.0019,139.997,45.000,30777.91430,1.87691,397.702,37.000,45.054,45.000,0.00,0.13,-272.54,-272.62,-28,422,-11,28.1,13.4,-2.4,28.1,13.8,-2.1,5.73,2.46,6.4,30.6
2013-09-25 00:15:00,3.0,1.87669,0.00033,397.680,0.016,0.0011,0.0017,139.998,45.000,30778.24303,1.87670,397.688,37.000,45.054,45.000,0.00,0.13,-272.54,-272.61,-28,422,-11,28.2,13.4,-2.4,28.1,13.8,-2.1,5.73,2.44,6.4,30.6
2013-09-25 00:16:00,3.0,1.87621,0.00013,397.723,0.027,0.0016,0.0012,139.997,45.000,30778.12627,1.87626,397.726,37.000,45.054,45.000,0.00,0.13,-272.54,-272.61,-28,422,-11,28.2,13.4,-2.5,28.1,13.8,-2.1,5.73,2.44,6.4,30.7
2013-09-25 00:17:00,3.0,1.87653,0.00023,397.700,0.018,0.0032,0.0017,140.002,45.000,30778.46698,1.87656,397.716,37.000,45.054,45.000,0.00,0.13,-272.54,-272.61,-28,422,-11,28.2,13.3,-2.5,28.1,13.7,-2.2,5.73,2.48,6.4,30.6
2013-09-25 00:18:00,3.0,1.87655,0.00046,397.686,0.023,0.0033,0.0019,140.002,45.000,30779.83936,1.87665,397.703,37.000,45.054,45.000,0.00,0.13,-272.54,-272.61,-28,423,-11,28.2,13.3,-2.5,28.2,13.6,-2.3,5.73,2.51,6.5,30.7
2013-09-25 00:19:00,3.0,1.87635,0.00041,397.684,0.033,0.0017,0.0015,139.997,45.000,30777.38154,1.87632,397.694,37.005,45.054,45.000,0.00,0.13,-272.54,-272.61,-28,423,-11,28.2,13.3,-2.6,28.1,13.6,-2.3,5.73,2.50,6.5,30.6
2013-09-25 00:20:00,0.0,1.89985,0.00793,389.939,4.444,0.5021,0.2490,140.120,45.000,31821.80362,1.90600,392.613,37.000,45.054,45.000,0.00,0.13,-272.54,-272.61,-28,595,-11,28.2,13.2,-2.6,28.2,13.6,-2.3,5.73,2.48,6.4,30.5
2013-09-25 00:21:00,0.0,1.89949,0.00210,386.499,0.162,0.6684,0.0025,140.002,45.000,31966.44628,1.91255,389.689,37.000,45.054,45.000,0.00,0.13,-272.54,-272.61,-28,596,-11,28.2,13.3,-2.6,28.2,13.5,-2.3,5.73,2.44,6.4,30.5
2013-09-25 00:22:00,0.0,1.90303,0.00255,386.498,0.061,0.6771,0.0032,140.001,45.000,31988.89134,1.91569,389.708,37.000,45.054,45.000,0.00,0.13,-272.54,-272.61,-28,596,-11,28.2,13.3,-2.5,28.2,13.6,-2.2,5.73,2.45,6.4,30.6
2013-09-25 00:23:00,0.0,1.90109,0.00105,386.535,0.036,0.6811,0.0017,140.000,45.000,32004.54144,1.91447,389.764,37.002,45.054,45.000,0.00,0.13,-272.54,-272.61,-28,596,-11,28.2,13.4,-2.5,28.2,13.7,-2.1,5.73,2.49,6.5,30.6
2013-09-25 00:24:00,0.0,1.89729,0.00106,386.433,0.074,0.6851,0.0035,140.002,45.000,32018.04528,1.91066,389.689,37.003,45.054,45.000,0.00,0.13,-272.54,-272.61,-28,596,-11,28.2,13.4,-2.4,28.2,13.7,-2.1,5.73,2.52,6.5,30.7
2013-09-25 00:25:00,0.0,1.89420,0.00130,386.268,0.089,0.6900,0.0009,140.002,45.000,32029.32918,1.90760,389.550,37.000,45.054,45.000,0.00,0.13,-272.54,-272.61,-28,596,-11,28.2,13.5,-2.3,28.2,13.8,-2.0,5.73,2.50,6.5,30.7
2013-09-25 00:26:00,0.0,1.89383,0.00054,386.218,0.052,0.6914,0.0013,139.998,45.000,32036.86244,1.90703,389.507,37.003,45.054,45.000,0.00,0.13,-272.53,-272.61,-28,596,-11,28.2,13.5,-2.3,28.2,13.8,-2.0,5.73,2.46,6.5,30.7
2013-09-25 00:27:00,0.0,1.89408,0.00062,386.150,0.045,0.6928,0.0015,140.002,45.000,32047.12475,1.90728,389.437,37.001,45.054,45.000,0.00,0.13,-272.54,-272.62,-28,596,-11,28.2,13.5,-2.3,28.2,13.8,-2.0,5.73,2.44,6.4,30.7
2013-09-25 00:28:00,0.0,1.89598,0.00119,386.239,0.054,0.6935,0.0017,140.005,45.000,32055.79546,1.90883,389.526,37.002,45.054,45.000,0.00,0.13,-272.54,-272.61,-28,596,-11,28.2,13.5,-2.3,28.2,13.8,-2.0,5.73,2.46,6.5,30.6
2013-09-25 00:29:00,0.0,1.89604,0.00231,386.248,0.129,0.6936,0.0016,140.001,45.000,32059.77396,1.90986,389.553,37.003,45.054,45.000,0.00,0.13,-272.54,-272.61,-28,596,-11,28.3,13.5,-2.3,28.2,13.8,-2.0,5.73,2.50,6.4,30.6
2013-09-25 00:30:00,0.0,1.89180,0.00076,385.916,0.038,0.6939,0.0021,140.003,45.000,32064.67007,1.90493,389.216,37.008,45.054,45.000,0.00,0.13,-272.54,-272.61,-28,596,-11,28.2,13.5,-2.3,28.2,13.9,-2.0,5.73,2.52,6.5,30.6
2013-09-25 00:31:00,0.0,1.89695,0.00245,385.990,0.050,0.6944,0.0015,140.000,45.000,32067.68461,1.90952,389.274,37.021,45.054,45.000,0.00,0.13,-272.54,-272.61,-28,596,-11,28.3,13.5,-2.3,28.2,13.9,-2.0,5.73,2.50,6.5,30.6
2013-09-25 00:32:00,0.0,1.90035,0.00166,386.060,0.055,0.6951,0.0011,140.000,45.000,32073.66220,1.91342,389.359,37.006,45.054,45.000,0.00,0.13,-272.54,-272.61,-28,596,-11,28.2,13.5,-2.3,28.2,13.9,-2.0,5.73,2.45,6.5,30.5
2013-09-25 00:33:00,0.0,1.89834,0.00444,386.009,0.151,0.6956,0.0013,139.999,45.000,32076.31573,1.91257,389.324,37.000,45.054,45.000,0.00,0.13,-272.54,-272.61,-28,596,-11,28.2,13.5,-2.3,28.2,13.8,-2.0,5.73,2.44,6.5,30.6
2013-09-25 00:34:00,0.0,1.89556,0.00156,385.878,0.047,0.6949,0.0008,140.004,45.000,32080.12832,1.90851,389.171,37.004,45.054,45.000,0.00,0.13,-272.54,-272.61,-28,596,-11,28.2,13.5,-2.3,28.2,13.9,-2.0,5.73,2.46,6.5,30.6
2013-09-25 00:35:00,0.0,1.89640,0.00174,385.897,0.044,0.6967,0.0019,140.002,45.000,32081.55620,1.90948,389.194,37.003,45.054,45.000,0.00,0.13,-272.54,-272.61,-28,596,-11,28.3,13.5,-2.3,28.2,13.9,-1.9,5.73,2.50,6.5,30.6
2013-09-25 00:36:00,0.0,1.89421,0.00341,385.903,0.081,0.6975,0.0017,139.995,45.000,32081.40375,1.90805,389.219,37.002,45.054,45.000,0.00,0.13,-272.54,-272.61,-28,596,-11,28.2,13.5,-2.3,28.2,13.9,-1.9,5.73,2.52,6.5,30.5
2013-09-25 00:37:00,0.0,1.89156,0.00178,385.826,0.013,0.6985,0.0018,140.007,45.000,32086.92584,1.90454,389.136,37.005,45.054,45.000,0.00,0.13,-272.54,-272.61,-28,596,-11,28.3,13.5,-2.2,28.2,13.9,-1.9,5.73,2.49,6.5,30.7
2013-09-25 00:38:00,0.0,1.89306,0.00310,385.873,0.063,0.6983,0.0019,140.000,45.000,32090.13394,1.90682,389.188,37.016,45.054,45.000,0.00,0.13,-272.54,-272.61,-28,596,-11,28.3,13.6,-2.2,28.2,13.9,-1.9,5.73,2.45,6.5,30.5
2013-09-25 00:39:00,0.0,1.89185,0.00116,385.845,0.056,0.6986,0.0018,140.003,45.000,32089.31529,1.90484,389.155,37.016,45.054,45.000,0.00,0.13,-272.54,-272.61,-28,596,-11,28.3,13.6,-2.2,28.2,13.9,-1.9,5.73,2.44,6.5,30.4
2013-09-25 00:40:00,0.0,1.89326,0.00158,385.943,0.027,0.6997,0.0026,140.004,45.000,32091.13719,1.90667,389.256,37.005,45.054,45.000,0.00,0.13,-272.54,-272.61,-28,596,-11,28.2,13.6,-2.2,28.2,13.9,-1.9,5.73,2.48,6.5,30.4
2013-09-25 00:41:00,0.0,1.89189,0.00104,385.989,0.049,0.7002,0.0018,140.008,45.000,32090.80487,1.90541,389.315,37.033,45.054,45.000,0.00,0.13,-272.54,-272.61,-28,596,-11,28.3,13.6,-2.2,28.2,13.9,-1.9,5.73,2.51,6.5,30.4
2013-09-25 00:42:00,0.0,1.89037,0.00052,385.916,0.034,0.7033,0.0016,140.002,45.000,32092.04561,1.90375,389.254,37.041,45.054,45.000,0.00,0.13,-272.54,-272.61,-28,596,-11,28.3,13.6,-2.2,28.2,14.0,-1.8,5.73,2.51,6.5,30.5
2013-09-25 00:43:00,0.0,1.89092,0.00046,385.892,0.056,0.7037,0.0019,140.002,45.000,32091.66986,1.90422,389.230,37.035,45.054,45.000,0.00,0.13,-272.54,-272.61,-28,596,-11,28.2,13.6,-2.2,28.2,14.0,-1.8,5.73,2.48,6.5,30.4
2013-09-25 00:44:00,0.0,1.89077,0.00040,385.878,0.022,0.7028,0.0025,140.002,45.000,32089.30443,1.90411,389.213,37.037,45.054,45.000,0.00,0.13,-272.54,-272.61,-28,596,-11,28.3,13.6,-2.1,28.2,14.0,-1.8,5.73,2.44,6.5,30.4
2013-09-25 00:45:00,0.0,1.89184,0.00032,385.864,0.035,0.7044,0.0021,140.003,45.000,32092.09285,1.90514,389.203,37.021,45.054,45.000,0.00,0.13,-272.54,-272.61,-28,596,-11,28.2,13.6,-2.1,28.2,14.0,-1.8,5.73,2.45,6.5,30.4
2013-09-25 00:46:00,0.0,1.89316,0.00075,385.944,0.038,0.7049,0.0020,140.000,45.000,32089.52935,1.90651,389.282,37.012,45.054,45.000,0.00,0.13,-272.54,-272.61,-28,596,-11,28.3,13.7,-2.1,28.2,14.0,-1.8,5.73,2.49,6.5,30.4
2013-09-25 00:47:00,0.0,1.89322,0.00056,385.938,0.015,0.7040,0.0016,140.001,45.000,32089.03328,1.90661,389.280,37.031,45.054,45.000,0.00,0.13,-272.54,-272.61,-28,596,-11,28.2,13.7,-2.1,28.2,14.0,-1.8,5.73,2.52,6.5,30.4
2013-09-25 00:48:00,0.0,1.89351,0.00039,385.964,0.020,0.7066,0.0014,139.997,45.000,32089.77908,1.90695,389.318,37.033,45.054,45.000,0.00,0.13,-272.54,-272.61,-28,597,-11,28.2,13.7,-2.1,28.2,14.0,-1.8,5.73,2.50,6.5,30.5
2013-09-25 00:49:00,0.0,1.89200,0.00052,385.917,0.043,0.7076,0.0016,139.995,45.000,32090.30428,1.90562,389.276,37.019,45.054,45.000,0.00,0.13,-272.54,-272.61,-28,596,-11,28.3,13.7,-2.1,28.2,14.1,-1.8,5.73,2.46,6.5,30.6
2013-09-25 00:50:00,0.0,1.89192,0.00087,385.845,0.024,0.7078,0.0027,140.003,45.000,32091.59000,1.90533,389.206,37.031,45.054,45.000,0.00,0.13,-272.54,-272.61,-28,596,-11,28.3,13.7,-2.1,28.2,14.1,-1.8,5.73,2.43,6.5,30.6
2013-09-25 00:51:00,0.0,1.89224,0.00042,385.953,0.023,0.7075,0.0013,140.001,45.000,32092.05183,1.90570,389.305,37.030,45.054,45.000,0.00,0.13,-272.54,-272.61,-28,596,-11,28.3,13.7,-2.1,28.2,14.1,-1.8,5.73,2.46,6.5,30.7
2013-09-25 00:52:00,0.0,1.89125,0.00102,385.941,0.039,0.7072,0.0021,140.004,45.000,32092.92094,1.90500,389.298,37.032,45.054,45.000,0.00,0.13,-272.54,-272.61,-28,596,-11,28.2,13.7,-2.1,28.2,14.1,-1.8,5.73,2.49,6.5,30.6
2013-09-25 00:53:00,0.0,1.89021,0.00063,385.907,0.032,0.7064,0.0019,140.002,45.000,32091.38521,1.90358,389.261,37.017,45.054,45.000,0.00,0.13,-272.54,-272.61,-28,596,-11,28.3,13.7,-2.1,28.2,14.0,-1.8,5.73,2.53,6.5,30.7
2013-09-25 00:54:00,0.0,1.89133,0.00087,386.010,0.086,0.7063,0.0030,140.000,45.000,32090.97181,1.90482,389.364,37.009,45.054,45.000,0.00,0.13,-272.54,-272.61,-28,596,-11,28.2,13.7,-2.1,28.2,14.0,-1.8,5.73,2.50,6.5,30.7
2013-09-25 00:55:00,0.0,1.88984,0.00050,385.911,0.033,0.7073,0.0034,140.003,45.000,32093.34338,1.90326,389.267,37.013,45.054,45.000,0.00,0.13,-272.54,-272.61,-28,596,-11,28.2,13.7,-2.1,28.2,14.0,-1.8,5.73,2.47,6.5,30.7
2013-09-25 00:56:00,0.0,1.89066,0.00039,385.940,0.042,0.7063,0.0012,140.002,45.000,32096.65904,1.90395,389.284,37.000,45.054,45.000,0.00,0.13,-272.54,-272.61,-28,596,-11,28.2,13.7,-2.1,28.2,14.0,-1.8,5.73,2.44,6.5,30.7
2013-09-25 00:57:00,0.0,1.89147,0.00054,385.931,0.027,0.7074,0.0007,140.001,45.000,32095.63406,1.90483,389.289,37.017,45.054,45.000,0.00,0.13,-272.54,-272.61,-28,596,-11,28.3,13.7,-2.1,28.2,14.0,-1.8,5.73,2.46,6.5,30.6
2013-09-25 00:58:00,0.0,1.89190,0.00088,385.951,0.049,0.7066,0.0022,140.001,45.000,32096.21169,1.90531,389.304,37.049,45.054,45.000,0.00,0.13,-272.54,-272.61,-28,596,-11,28.3,13.7,-2.1,28.2,14.0,-1.8,5.73,2.49,6.5,30.6
2013-09-25 00:59:00,0.0,1.89161,0.00049,385.923,0.054,0.7064,0.0019,140.000,45.000,32097.69063,1.90519,389.280,37.062,45.054,45.000,0.00,0.13,-272.54,-272.61,-28,596,-11,28.3,13.7,-2.1,28.2,14.1,-1.7,5.73,2.52,6.5,30.7
2013-09-25 01:00:00,0.0,1.89070,0.00050,385.897,0.034,0.7088,0.0016,140.003,45.000,32098.04244,1.90434,389.258,37.063,45.054,45.000,0.00,0.13,-272.54,-272.61,-28,596,-11,28.3,13.8,-2.0,28.2,14.1,-1.7,5.73,2.50,6.5,30.4
2013-09-25 01:01:00,0.0,1.88967,0.00042,385.857,0.022,0.7097,0.0019,140.004,45.000,32098.16951,1.90325,389.226,37.063,45.054,45.000,0.00,0.13,-272.54,-272.62,-28,596,-11,28.2,13.8,-2.0,28.2,14.1,-1.7,5.73,2.46,6.5,30.5
2013-09-25 01:02:00,0.0,1.88920,0.00039,385.817,0.038,0.7105,0.0019,140.006,45.000,32100.01038,1.90273,389.190,37.063,45.054,45.000,0.00,0.13,-272.54,-272.61,-28,596,-12,28.2,13.8,-2.0,28.2,14.1,-1.7,5.73,2.44,6.5,30.7
2013-09-25 01:03:00,0.0,1.88929,0.00036,385.856,0.031,0.7109,0.0017,139.998,45.000,32096.58274,1.90274,389.227,37.063,45.054,45.000,0.00,0.13,-272.54,-272.61,-28,596,-11,28.2,13.8,-2.0,28.2,14.1,-1.7,5.73,2.44,6.5,30.8
2013-09-25 01:04:00,0.0,1.88985,0.00056,385.845,0.039,0.7103,0.0012,139.999,45.000,32096.03888,1.90328,389.209,37.062,45.054,45.000,0.00,0.13,-272.54,-272.61,-28,596,-11,28.2,13.8,-2.1,28.2,14.1,-1.7,5.73,2.49,6.5,30.7
2013-09-25 01:05:00,0.0,1.88913,0.00036,385.854,0.054,0.7099,0.0022,139.993,45.000,32092.62232,1.90280,389.230,37.044,45.054,45.000,0.00,0.13,-272.54,-272.61,-28,596,-11,28.2,13.8,-2.0,28.2,14.1,-1.7,5.73,2.52,6.5,30.7
2013-09-25 01:06:00,0.0,1.88901,0.00053,385.848,0.033,0.7099,0.0014,140.000,45.000,32093.33169,1.90249,389.212,37.010,45.054,45.000,0.00,0.13,-272.54,-272.61,-28,596,-11,28.2,13.8,-2.0,28.2,14.1,-1.7,5.73,2.51,6.5,30.9
2013-09-25 01:07:00,0.0,1.88915,0.00043,385.823,0.021,0.7106,0.0013,140.004,45.000,32094.63069,1.90260,389.194,36.998,45.054,45.000,0.00,0.13,-272.54,-272.61,-28,596,-11,28.2,13.8,-2.0,28.2,14.1,-1.7,5.73,2.48,6.5,30.9
2013-09-25 01:08:00,0.0,1.88906,0.00029,385.833,0.025,0.7101,0.0024,140.004,45.000,32095.37083,1.90263,389.204,36.998,45.054,45.000,0.00,0.13,-272.54,-272.62,-28,596,-11,28.2,13.8,-2.1,28.2,14.1,-1.7,5.73,2.45,6.5,30.9
2013-09-25 01:09:00,0.0,1.88886,0.00045,385.802,0.031,0.7098,0.0011,140.007,45.000,32095.96556,1.90231,389.166,36.994,45.054,45.000,0.00,0.13,-272.54,-272.61,-28,596,-11,28.2,13.8,-2.1,28.2,14.1,-1.8,5.73,2.44,6.5,30.7
2013-09-25 01:10:00,0.0,1.88876,0.00036,385.843,0.034,0.7096,0.0017,140.001,45.000,32094.16308,1.90222,389.208,36.997,45.054,45.000,0.00,0.13,-272.54,-272.61,-28,596,-11,28.2,13.8,-2.0,28.2,14.1,-1.8,5.73,2.47,6.5,30.7
2013-09-25 01:11:00,0.0,1.88909,0.00030,385.848,0.065,0.7113,0.0010,140.003,45.000,32095.43249,1.90265,389.227,37.000,45.055,45.000,0.00,0.13,-272.54,-272.61,-28,596,-11,28.2,13.8,-2.0,28.2,14.1,-1.7,5.73,2.50,6.5,30.6
2013-09-25 01:12:00,0.0,1.88882,0.00028,385.777,0.029,0.7102,0.0010,139.999,45.000,32092.63200,1.90235,389.149,37.000,45.054,45.000,0.00,0.13,-272.54,-272.61,-28,596,-11,28.2,13.8,-2.0,28.2,14.1,-1.8,5.73,2.51,6.5,30.6
2013-09-25 01:13:00,0.0,1.88922,0.00046,385.873,0.039,0.7095,0.0014,140.002,45.000,32093.59939,1.90267,389.231,37.000,45.054,45.000,0.00,0.13,-272.54,-272.61,-28,596,-11,28.2,13.8,-2.0,28.2,14.1,-1.8,5.73,2.48,6.5,30.6
2013-09-25 01:14:00,0.0,1.88848,0.00048,385.843,0.059,0.7110,0.0013,140.006,45.000,32094.47583,1.90202,389.224,37.000,45.054,45.000,0.00,0.13,-272.54,-272.61,-28,596,-11,28.2,13.8,-2.0,28.2,14.1,-1.7,5.73,2.45,6.5,30.5
2013-09-25 01:15:00,0.0,1.88937,0.00048,385.872,0.070,0.7112,0.0012,140.004,45.000,32093.32048,1.90288,389.248,37.002,45.054,45.000,0.00,0.13,-272.54,-272.61,-28,596,-11,28.2,13.8,-2.0,28.2,14.1,-1.7,5.73,2.45,6.5,30.5
2013-09-25 01:16:00,0.0,1.88892,0.00051,385.817,0.037,0.7103,0.0015,140.004,45.000,32092.93066,1.90240,389.185,37.034,45.054,45.000,0.00,0.13,-272.54,-272.61,-28,596,-11,28.2,13.8,-2.0,28.2,14.1,-1.7,5.73,2.47,6.5,30.5
2013-09-25 01:17:00,0.0,1.88913,0.00040,385.828,0.024,0.7107,0.0022,140.003,45.000,32094.41526,1.90258,389.198,37.021,45.054,45.000,0.00,0.13,-272.54,-272.61,-28,596,-11,28.2,13.8,-2.1,28.2,14.1,-1.7,5.73,2.51,6.5,30.5
2013-09-25 01:18:00,0.0,1.88972,0.00028,385.888,0.029,0.7119,0.0018,140.000,45.000,32092.41026,1.90320,389.263,37.033,45.054,45.000,0.00,0.13,-272.54,-272.61,-28,596,-11,28.2,13.8,-2.0,28.2,14.1,-1.7,5.73,2.52,6.5,30.6
2013-09-25 01:19:00,0.0,1.88919,0.00043,385.852,0.015,0.7130,0.0025,140.001,45.000,32093.16839,1.90281,389.237,37.034,45.054,45.000,0.00,0.13,-272.54,-272.61,-28,596,-11,28.2,13.8,-2.0,28.2,14.2,-1.7,5.73,2.49,6.5,30.5
2013-09-25 01:20:00,0.0,1.88911,0.00022,385.843,0.052,0.7145,0.0014,140.000,45.000,32094.70461,1.90271,389.232,37.032,45.054,45.000,0.00,0.13,-272.53,-272.61,-28,596,-11,28.2,13.9,-1.9,28.2,14.2,-1.7,5.73,2.45,6.5,30.6
2013-09-25 01:21:00,0.0,1.88948,0.00031,385.837,0.040,0.7150,0.0014,140.000,45.000,32096.59557,1.90306,389.233,37.034,45.054,45.000,0.00,0.13,-272.54,-272.62,-28,596,-11,28.2,13.9,-1.9,28.2,14.2,-1.6,5.73,2.44,6.5,30.6
2013-09-25 01:22:00,0.0,1.88906,0.00024,385.774,0.038,0.7170,0.0021,140.000,45.000,32095.58726,1.90273,389.181,37.051,45.054,45.000,0.00,0.13,-272.54,-272.61,-28,596,-11,28.2,13.9,-1.9,28.2,14.2,-1.6,5.73,2.46,6.5,30.6
2013-09-25 01:23:00,0.0,1.88889,0.00043,385.765,0.029,0.7172,0.0007,140.006,45.000,32098.30923,1.90255,389.166,37.051,45.054,45.000,0.00,0.13,-272.54,-272.61,-28,596,-11,28.2,13.9,-1.9,28.2,14.3,-1.6,5.73,2.50,6.5,30.5
2013-09-25 01:24:00,0.0,1.88906,0.00018,385.776,0.030,0.7169,0.0024,139.994,45.000,32095.55208,1.90263,389.176,37.063,45.054,45.000,0.00,0.13,-272.54,-272.61,-28,596,-11,28.2,13.9,-1.9,28.2,14.3,-1.6,5.73,2.52,6.5,30.6
2013-09-25 01:25:00,0.0,1.88917,0.00026,385.768,0.027,0.7173,0.0020,140.001,45.000,32098.54139,1.90280,389.170,37.058,45.054,45.000,0.00,0.13,-272.54,-272.62,-28,596,-11,28.2,13.9,-1.9,28.2,14.2,-1.6,5.73,2.48,6.5,30.6
2013-09-25 01:26:00,0.0,1.88912,0.00045,385.779,0.022,0.7160,0.0022,139.994,45.000,32098.02725,1.90284,389.176,37.063,45.054,45.000,0.00,0.13,-272.54,-272.61,-28,596,-11,28.2,13.9,-1.9,28.2,14.2,-1.6,5.73,2.44,6.5,30.6
2013-09-25 01:27:00,0.0,1.88932,0.00046,385.791,0.047,0.7147,0.0017,140.001,45.000,32098.95850,1.90277,389.178,37.063,45.054,45.000,0.00,0.13,-272.54,-272.61,-28,596,-12,28.2,13.9,-1.9,28.2,14.2,-1.6,5.73,2.44,6.5,30.6
2013-09-25 01:28:00,0.0,1.88957,0.00061,385.891,0.023,0.7156,0.0013,140.000,45.000,32097.23368,1.90321,389.286,37.063,45.054,45.000,0.00,0.13,-272.54,-272.61,-28,596,-11,28.2,13.9,-1.9,28.2,14.2,-1.6,5.73,2.48,6.5,30.6
2013-09-25 01:29:00,0.0,1.89046,0.00075,385.798,0.025,0.7171,0.0013,140.004,45.000,32100.24766,1.90401,389.205,37.070,45.054,45.000,0.00,0.37,-270.23,-271.48,-28,596,-11,28.2,13.9,-1.9,28.2,14.2,-1.6,5.42,2.58,2.5,30.5
2013-09-25 01:30:00,0.0,1.89056,0.00065,385.777,0.026,0.7188,0.0013,140.002,45.000,32099.68356,1.90413,389.188,37.063,45.054,45.000,0.00,0.13,-272.54,-272.61,-28,596,-11,28.3,13.9,-1.9,28.2,14.3,-1.6,5.73,2.51,6.5,30.5
2013-09-25 01:31:00,0.0,1.89033,0.00028,385.773,0.019,0.7191,0.0017,140.001,45.000,32100.53676,1.90413,389.186,37.068,45.054,45.000,0.00,0.13,-272.54,-272.61,-28,596,-11,28.2,13.9,-1.9,28.2,14.3,-1.6,5.73,2.47,6.5,30.5
2013-09-25 01:32:00,0.0,1.89001,0.00058,385.715,0.042,0.7169,0.0027,140.003,45.000,32100.29966,1.90365,389.120,37.063,45.054,45.000,0.00,0.13,-272.54,-272.61,-28,596,-11,28.2,13.9,-1.9,28.2,14.2,-1.6,5.73,2.44,6.5,30.4
2013-09-25 01:33:00,0.0,1.89110,0.00043,385.800,0.054,0.7167,0.0017,140.008,45.000,32101.85607,1.90469,389.199,37.065,45.054,45.000,0.00,0.13,-272.54,-272.61,-28,596,-11,28.2,13.9,-1.9,28.2,14.2,-1.6,5.73,2.45,6.5,30.5
2013-09-25 01:34:00,0.0,1.89109,0.00056,385.767,0.065,0.7166,0.0025,140.000,45.000,32100.01899,1.90462,389.161,37.074,45.054,45.000,0.00,0.13,-272.54,-272.61,-28,596,-11,28.2,13.9,-1.9,28.2,14.2,-1.6,5.73,2.49,6.5,30.5
2013-09-25 01:35:00,0.0,1.89108,0.00033,385.766,0.035,0.7153,0.0021,139.999,45.000,32099.89670,1.90477,389.164,37.080,45.054,45.000,0.00,0.13,-272.54,-272.62,-28,596,-11,28.2,13.9,-1.9,28.2,14.2,-1.6,5.73,2.51,6.5,30.5
2013-09-25 01:36:00,0.0,1.89086,0.00023,385.779,0.024,0.7149,0.0018,140.001,45.000,32099.79644,1.90448,389.174,37.087,45.054,45.000,0.00,0.13,-272.54,-272.61,-28,596,-11,28.2,13.9,-1.9,28.2,14.2,-1.6,5.73,2.50,6.5,30.4
2013-09-25 01:37:00,0.0,1.89142,0.00052,385.757,0.021,0.7141,0.0021,139.999,45.000,32099.58231,1.90490,389.145,37.107,45.054,45.000,0.00,0.13,-272.54,-272.61,-28,596,-11,28.2,13.9,-2.0,28.2,14.2,-1.6,5.73,2.46,6.5,30.4
2013-09-25 01:38:00,0.0,1.89139,0.00047,385.737,0.021,0.7150,0.0018,140.001,45.000,32097.63132,1.90506,389.128,37.116,45.054,45.000,0.00,0.13,-272.54,-272.61,-28,596,-11,28.2,13.8,-2.0,28.2,14.2,-1.6,5.73,2.43,6.5,30.5
2013-09-25 01:39:00,0.0,1.89098,0.00026,385.723,0.017,0.7149,0.0013,139.999,45.000,32095.53259,1.90461,389.116,37.123,45.054,45.000,0.00,0.13,-272.54,-272.61,-28,596,-11,28.2,13.8,-2.0,28.2,14.2,-1.6,5.73,2.45,6.5,30.5
2013-09-25 01:40:00,0.0,1.89098,0.00027,385.722,0.023,0.7138,0.0014,140.002,45.000,32096.19128,1.90454,389.111,37.119,45.054,45.000,0.00,0.13,-272.54,-272.61,-28,596,-12,28.3,13.8,-2.0,28.2,14.2,-1.7,5.73,2.49,6.5,30.4
2013-09-25 01:41:00,0.0,1.89095,0.00045,385.725,0.020,0.7138,0.0010,139.999,45.000,32095.06143,1.90460,389.107,37.124,45.054,45.000,0.00,0.13,-272.54,-272.61,-28,596,-12,28.2,13.8,-2.0,28.2,14.2,-1.7,5.73,2.51,6.5,30.5
2013-09-25 01:42:00,0.0,1.89012,0.00032,385.685,0.029,0.7121,0.0015,139.995,45.000,32094.54386,1.90370,389.068,37.123,45.054,45.000,0.00,0.13,-272.54,-272.61,-28,596,-11,28.2,13.8,-2.0,28.2,14.2,-1.7,5.73,2.50,6.5,30.7
2013-09-25 01:43:00,0.0,1.89001,0.00029,385.665,0.033,0.7132,0.0016,139.998,45.000,32095.22646,1.90360,389.049,37.125,45.054,45.000,0.00,0.13,-272.54,-272.61,-28,596,-12,28.2,13.8,-2.0,28.2,14.2,-1.7,5.73,2.45,6.5,30.5
2013-09-25 01:44:00,0.0,1.89022,0.00033,385.585,0.029,0.7120,0.0016,140.000,45.000,32094.21836,1.90369,388.965,37.125,45.054,45.000,0.00,0.13,-272.54,-272.61,-28,596,-12,28.2,13.8,-2.0,28.2,14.1,-1.7,5.73,2.43,6.5,30.5
2013-09-25 01:45:00,0.0,1.89067,0.00069,385.691,0.070,0.7111,0.0020,139.998,45.000,32093.47359,1.90410,389.056,37.125,45.054,45.000,0.00,0.13,-272.54,-272.61,-28,596,-12,28.3,13.8,-2.0,28.2,14.1,-1.7,5.73,2.46,6.5,30.4
2013-09-25 01:46:00,0.0,1.89039,0.00035,385.627,0.019,0.7137,0.0022,140.001,45.000,32095.24462,1.90409,389.016,37.125,45.054,45.000,0.00,0.13,-272.54,-272.61,-28,596,-12,28.3,13.8,-2.0,28.2,14.1,-1.7,5.73,2.51,6.5,30.4